Flag for U.S.A. Weather past 2 weeks in Daytona Beach, Florida, U.S.A.

Now
70 °F

Passing clouds.


Feels Like: 76 °F
Forecast: 63 / 74 °F
Wind: 15 mph from Northeast

Location: Daytona Beach Regional Airport

Current Time: Oct 22, 2014 at 11:10:41 PM

Latest Report: Oct 22, 2014 at 9:53 PM


Visibility: 10 mi

Pressure: 30.03 "Hg

Humidity: 59%

Dew point: 55 °F

Location of Daytona BeachLocation

Historic Weather in Daytona Beach — Graph

°F

Daytona Beach temperature yesterday

Maximum temperature yesterday: 82 °F (at 2:53 PM)
Minimum temperature yesterday: 68 °F (at 6:53 AM)
Average temperature yesterday: 73 °F

Past Weeks' High & Low Weather Summary

 TemperatureHumidityPressure
High89 °F (Oct 14, 2:53 PM)100% (Oct 9, 1:53 AM)30.15 "Hg (Oct 9, 1:53 AM)
Low57 °F (Oct 18, 6:53 AM)37% (Oct 18, 2:53 PM)29.87 "Hg (Oct 16, 3:53 PM)
Average74 °F77%30.01 "Hg
* Reported Oct 7 9:53 PM — Oct 22 9:53 PM, Daytona Beach, Weather by CustomWeather, © 2014

Note: Actual official high and low records may vary slightly from our data, if they occured in-between our weather recording intervals... More about our weather records

Advertising

Daytona Beach weather history for previous 24 hours

 ConditionsComfort  
Time TempWeatherWind HumidityBarometerVisibility
9:53 PM
Oct 22
70 °FPassing clouds.15 mph59%30.03 "Hg10 mi
8:53 PM70 °FPassing clouds.14 mph64%30.02 "Hg10 mi
7:53 PM70 °FPassing clouds.10 mph66%30.00 "Hg10 mi
6:53 PM71 °FPassing clouds.12 mph63%29.98 "Hg10 mi
5:53 PM74 °FPassing clouds.14 mph62%29.97 "Hg10 mi
4:53 PM76 °FPassing clouds.15 mph58%29.96 "Hg10 mi
3:53 PM77 °FPassing clouds.15 mph58%29.95 "Hg10 mi
2:53 PM78 °FPassing clouds.13 mph56%29.96 "Hg10 mi
1:53 PM80 °FPassing clouds.14 mph54%29.98 "Hg10 mi
12:53 PM80 °FPassing clouds.10 mph52%29.99 "Hg10 mi
11:53 AM80 °FPassing clouds.6 mph54%30.00 "Hg10 mi
10:53 AM77 °FPassing clouds.7 mph64%30.01 "Hg10 mi
9:53 AM72 °FPassing clouds.6 mph71%30.01 "Hg10 mi
8:53 AM67 °FPassing clouds.No wind85%29.99 "Hg10 mi
7:53 AM64 °FPassing clouds.No wind94%29.97 "Hg8 mi
6:53 AM65 °FPassing clouds.No wind91%29.96 "Hg9 mi
5:53 AM65 °FPassing clouds.6 mph97%29.94 "Hg8 mi
4:53 AM66 °FFog.No wind96%29.93 "Hg1 mi
3:53 AM67 °FFog.5 mph100%29.93 "Hg4 mi
2:53 AM66 °FFog.No wind96%29.94 "Hg4 mi
1:53 AM66 °FFog.3 mph96%29.94 "Hg4 mi
12:53 AM68 °FFog.No wind96%29.95 "Hg6 mi
11:53 PM
Oct 21
69 °FPassing clouds.No wind96%29.96 "Hg8 mi
Weather by CustomWeather, © 2014

See weather overviewHow to use our weather pages